Regional Weather Roundup
Issued by NWS

Home | Current Version | Previous Version | Graphics & Text | Print | Product List | Glossary On
Versions: 1 2 3 4 5 6 7 8 9 10 11 12 13 14 15 16 17 18 19 20 21 22 23 24 25 26 27 28 29 30 31 32 33 34 35 36 37 38 39 40 41 42 43 44 45 46 47 48 49 50
000
ASUS43 KMKX 221000
RWRWI

WISCONSIN REGIONAL WEATHER ROUNDUP
NATIONAL WEATHER SERVICE MILWAUKEE/SULLIVAN WI
500 AM CDT MON MAY 22 2017

NOTE: "FAIR" INDICATES FEW OR NO CLOUDS BELOW 12,000 FEET WITH NO
SIGNIFICANT WEATHER AND/OR OBSTRUCTIONS TO VISIBILITY.

WIZ001-002-006>008-014>016-023>028-221100-
NORTHWEST WISCONSIN

CITY           SKY/WX    TMP DP  RH WIND       PRES   REMARKS
SUPERIOR ARPT  NOT AVBL
ASHLAND        CLOUDY    46  43  89 SW9       29.78S
HAYWARD        LGT RAIN  45  42  89 SW6       29.81S
SIREN          CLOUDY    44  43  95 W8        29.84S
CUMBERLAND     CLOUDY    43  41  93 W10       29.84F
RICE LAKE      CLOUDY    45  43  93 SW6       29.86F
CHETEK         CLOUDY    44  43  97 W3        29.86S
LADYSMITH      DRIZZLE   44  43  96 SW8       29.85S
EAU CLAIRE     NOT AVBL
MENOMONIE      CLOUDY    45  42  91 SW6       29.88F
NEW RICHMOND   MOCLDY    43  41  95 SW7       29.87F
OSCEOLA        CLOUDY    45  45 100 SW6       29.88F
$$

WIZ003>005-009-010-017-018-221100-
NORTH CENTRAL WISCONSIN

CITY           SKY/WX    TMP DP  RH WIND       PRES   REMARKS
MANITOWISH WTR DRIZZLE   43  43 100 W6        29.77S
ARBOR VITAE    CLOUDY    44  43  94 W7        29.77S
WOODRUFF       CLOUDY    44  43  94 W7        29.77S
RHINELANDER    LGT RAIN  45  43  93 W12       29.79S
EAGLE RIVER    MIX PCPN  44  44  97 W12       29.76R
LAND O LAKES   CLOUDY    45  44  95 W7        29.77R
PHILLIPS       CLOUDY    42  42 100 W8        29.80S
TOMAHAWK       LGT RAIN  43  41  93 W5        29.81S
MEDFORD        DRIZZLE   42  40  93 W10G16    29.84R
MERRILL        LGT RAIN  43  43  98 W10       29.83S
$$

WIZ029-030-035-036-043>047-221100-
CENTRAL WISCONSIN

CITY           SKY/WX    TMP DP  RH WIND       PRES   REMARKS
WAUSAU         LGT RAIN  43  41  93 W9G21     29.83S
MOSINEE        DRIZZLE   43  43 100 W10       29.86S
MARSHFIELD     CLOUDY    44  41  89 W10       29.85S
STEVENS POINT  CLOUDY    43  41  93 W10G16    29.87R
WAUPACA        CLOUDY    48  41  76 W14G22    29.87S
WAUTOMA        CLOUDY    47  40  76 W12       29.90
WISC RAPIDS    CLOUDY    46  41  82 W12G20    29.89S
CAMP DOUGLAS   NOT AVBL
$$

WIZ011>013-019>022-031-037>040-048>050-221100-
NORTHEAST WISCONSIN

CITY           SKY/WX    TMP DP  RH WIND       PRES   REMARKS
ANTIGO         DRIZZLE   42  42  98 W14G20    29.81S
SHAWANO        LGT RAIN  48  44  85 SW10      29.84R
OCONTO         CLOUDY    46  43  89 W8        29.81S
STURGEON BAY   CLOUDY    47  44  90 W12       29.82S
GREEN BAY      CLOUDY    48  44  86 W12       29.85S
MANITOWOC      NOT AVBL
APPLETON       CLOUDY    45  37  76 W12G18    29.85S
CLINTONVILLE   CLOUDY    46  41  81 W10       29.85R
OSHKOSH        CLOUDY    48  40  73 W9G22     29.88S
$$

WIZ032>034-041-042-053>061-221100-
SOUTHWEST WISCONSIN

CITY           SKY/WX    TMP DP  RH WIND       PRES   REMARKS
LA CROSSE      MOCLDY    48  41  76 SW5       29.92F
SPARTA         PTCLDY    42  41  95 CALM      29.92F
VIROQUA        MOCLDY    42  41  94 SW7       29.93F
BOSCOBEL       PTCLDY    45  41  86 S5        29.97S
PRAIRIE DU CHI CLEAR     47  40  78 W5        29.97S
PLATTEVILLE    CLEAR     44  44  99 SW8       29.99S
$$

WIZ056-057-062-063-064-067-068-221100-
SOUTH CENTRAL WISCONSIN

CITY           SKY/WX    TMP DP  RH WIND       PRES   REMARKS
REEDSBURG      PTCLDY    44  42  93 SW6       29.93S
BARABOO/DELLS  CLEAR     43  39  85 W7        29.93S
LONE ROCK      NOT AVBL
MINERAL POINT  CLEAR     45  45 100 SW8       29.97R
MADISON        CLEAR     46  41  82 SW6       29.95R
MIDDLETON      CLEAR     46  41  84 W8        29.96R
WATERTOWN      CLEAR     46  40  80 W7        29.94R
MONROE         CLEAR     45  41  87 SW13      29.97S
JANESVILLE     CLEAR     45  43  93 SW7       29.97S
$$

WIZ051-052-058>065-066-070>072-221100-
SOUTHEAST WISCONSIN

CITY           SKY/WX    TMP DP  RH WIND       PRES   REMARKS
MILWAUKEE      MOCLDY    51  40  65 W14G21    29.94R
WAUKESHA       CLOUDY    45  37  76 W12       29.95S
MILWAUKEE/TIMM   N/A     48  36  61 W12G22    29.94S
RACINE         PTCLDY    49  40  71 W10G18    29.96S
KENOSHA        PTCLDY    47  40  76 W13       29.96S
FOND DU LAC    CLOUDY    49  38  65 W9        29.90R
SHEBOYGAN      CLOUDY    48  42  80 W16G24    29.88S
WEST BEND      CLOUDY    46  37  71 W15G21    29.91S
JUNEAU         CLOUDY    46  39  76 SW13      29.93S
$$

LSZ147-162-221100-
LAKE SUPERIOR

STATION/POSITION TIME  TEMP    WIND        PRES    WAVE
                       AIR SEA DIR/SP/G            HT/PER
                 (UTC) (F)     (DEG/KT/KT) (MB)    (FT/S)
W MID LAKE BUOY  0850   40 37  250/ 16/ 17 1006.5F   1/ 3
DEVILS ISLAND    0900   43     240/ 20/ 24 1007.3F
PORT WING        0940   46     220/ 10/ 14 1008.1F
SAXON HARBOR     0940   47     200/  5/ 10 1007.8S
$$

LMZ867-665-643>646-221100-
LAKE MICHIGAN

STATION/POSITION TIME  TEMP    WIND        PRES    WAVE
                       AIR SEA DIR/SP/G            HT/PER
                 (UTC) (F)     (DEG/KT/KT) (MB)    (FT/S)
CHAMBERS ISLAND  0940   48     210/  7/ 13 1008.5S
N MID LAKE BUOY  0850   42 38  200/ 14/ 16 1009.8F   2/ 4
NORTHPORT PIER   0940   47     230/  5/ 13 1008.8S
KEWAUNEE LAKESHO 0930   49     250/ 11/ 19 1010.1R
SHEBOYGAN LAKESH 0900   49     250/ 14/ 17 1011.7R
PORT WASHINGTON  0940   50     270/  8/ 20 1013.5S
MILWAUKEE LAKESH 0930   51     270/ 13/ 16   N/A
S MID LAKE BUOY  0850   47 44  250/ 14/ 16 1014.7R   2/ 4
KENOSHA   LAKESH 0900   51     260/ 13/ 19 1014.6
$$

TC  - TEMPERATURE IN CELSIUS
VSB - VISIBILITY IN STATUTE MILES
WCI - WIND CHILL INDEX
HX  - HEAT INDEX




USA.gov is the U.S. government's official web portal to all federal, state and local government web resources and services.